RYR2GW LOWW-LIPZ

Flight info

Callsign RYR2GW
Flight time 0h 53m
Altitude 30000
Route IRGO2C/29 RUPET DCT GRZ DCT RADLY DCT OGODI DCT RIFEN DCT BADOP DCT ROSKA P125 TULIK Z71 BASOG
Aircraft B738/M-SDE2E3FGHIRWXY/LB1

Departure

Time 2026-05-07 20:02
Airport Vienna International Airport (LOWW)

Arrival

Time 2026-05-07 20:55
Airport Venice Marco Polo Airport (LIPZ)
Time Latitude Longitude Altitude Speed Heading
2026-05-07 19:36 48.11953 16.55587 608 ft 0 kts 64°
2026-05-07 19:51 48.11945 16.55563 625 ft 4 kts 64°
2026-05-07 19:51 48.11933 16.55527 624 ft 4 kts 64°
2026-05-07 19:51 48.11922 16.55490 617 ft 4 kts 66°
2026-05-07 19:51 48.11912 16.55453 624 ft 4 kts 74°
2026-05-07 19:52 48.11908 16.55415 621 ft 4 kts 105°
2026-05-07 19:52 48.11910 16.55405 619 ft 0 kts 116°
2026-05-07 19:54 48.11910 16.55406 608 ft 1 kts 116°
2026-05-07 19:55 48.11898 16.55442 612 ft 8 kts 116°
2026-05-07 19:55 48.11863 16.55549 616 ft 14 kts 116°
2026-05-07 19:55 48.11819 16.55684 616 ft 15 kts 116°
2026-05-07 19:55 48.11772 16.55829 612 ft 16 kts 116°
2026-05-07 19:56 48.11724 16.55978 617 ft 16 kts 116°
2026-05-07 19:56 48.11676 16.56124 609 ft 16 kts 116°
2026-05-07 19:56 48.11624 16.56284 619 ft 18 kts 116°
2026-05-07 19:56 48.11566 16.56460 619 ft 20 kts 116°
2026-05-07 19:57 48.11499 16.56664 613 ft 24 kts 116°
2026-05-07 19:57 48.11419 16.56908 616 ft 27 kts 116°
2026-05-07 19:57 48.11347 16.57133 615 ft 20 kts 116°
2026-05-07 19:57 48.11287 16.57315 612 ft 16 kts 116°
2026-05-07 19:58 48.11238 16.57465 614 ft 16 kts 116°
2026-05-07 19:58 48.11189 16.57591 619 ft 13 kts 144°
2026-05-07 19:58 48.11104 16.57616 615 ft 11 kts 144°
2026-05-07 19:58 48.11050 16.57646 622 ft 7 kts 186°
2026-05-07 19:59 48.11028 16.57635 608 ft 0 kts 204°
2026-05-07 19:59 48.11020 16.57630 596 ft 4 kts 204°
2026-05-07 20:00 48.10973 16.57598 623 ft 10 kts 206°
2026-05-07 20:00 48.10925 16.57510 616 ft 13 kts 275°
2026-05-07 20:00 48.10937 16.57465 612 ft 0 kts 296°
2026-05-07 20:01 48.10937 16.57464 611 ft 2 kts 296°
2026-05-07 20:01 48.11016 16.57222 616 ft 62 kts 295°
2026-05-07 20:02 48.11311 16.56318 612 ft 129 kts 296°
2026-05-07 20:02 48.11804 16.54916 832 ft 165 kts 297°
2026-05-07 20:02 48.12351 16.53389 1663 ft 167 kts 285°
2026-05-07 20:02 48.12370 16.51653 2487 ft 170 kts 256°
2026-05-07 20:03 48.11671 16.50214 3285 ft 184 kts 215°
2026-05-07 20:03 48.10515 16.49373 4159 ft 187 kts 209°
2026-05-07 20:03 48.09275 16.48439 4568 ft 213 kts 211°
2026-05-07 20:03 48.07936 16.47383 5116 ft 221 kts 211°
2026-05-07 20:04 48.07069 16.46551 5401 ft 231 kts 220°
2026-05-07 20:04 48.05775 16.44898 5798 ft 250 kts 224°
2026-05-07 20:04 48.04437 16.43081 6252 ft 271 kts 224°
2026-05-07 20:04 48.03021 16.41168 7069 ft 276 kts 223°
2026-05-07 20:05 48.01585 16.39255 8000 ft 277 kts 223°
2026-05-07 20:05 48.00130 16.37338 8886 ft 281 kts 223°
2026-05-07 20:05 47.98654 16.35408 9772 ft 284 kts 223°
2026-05-07 20:05 47.97156 16.33455 10511 ft 292 kts 222°
2026-05-07 20:06 47.95560 16.31385 10734 ft 317 kts 221°
2026-05-07 20:06 47.93785 16.29209 10939 ft 342 kts 220°
2026-05-07 20:06 47.91868 16.26927 11220 ft 361 kts 219°
2026-05-07 20:06 47.89877 16.24574 11885 ft 367 kts 219°
2026-05-07 20:07 47.87875 16.22208 12731 ft 368 kts 219°
2026-05-07 20:07 47.85865 16.19830 13573 ft 370 kts 219°
2026-05-07 20:07 47.83847 16.17437 14301 ft 373 kts 219°
2026-05-07 20:07 47.81813 16.15023 14972 ft 376 kts 219°
2026-05-07 20:08 47.79756 16.12580 15637 ft 379 kts 219°
2026-05-07 20:08 47.77685 16.10121 16314 ft 383 kts 219°
2026-05-07 20:08 47.75597 16.07645 16968 ft 386 kts 219°
2026-05-07 20:08 47.73490 16.05148 17600 ft 390 kts 219°
2026-05-07 20:09 47.71357 16.02624 18222 ft 393 kts 219°
2026-05-07 20:09 47.69207 16.00081 18797 ft 397 kts 219°
2026-05-07 20:09 47.67042 15.97524 19362 ft 399 kts 219°
2026-05-07 20:10 47.62660 15.92356 20411 ft 406 kts 219°
2026-05-07 20:10 47.60443 15.89746 20922 ft 409 kts 219°
2026-05-07 20:10 47.58204 15.87111 21426 ft 412 kts 219°
2026-05-07 20:10 47.55954 15.84467 21944 ft 415 kts 219°
2026-05-07 20:11 47.53677 15.81797 22438 ft 418 kts 219°
2026-05-07 20:11 47.51401 15.79107 22924 ft 421 kts 219°
2026-05-07 20:11 47.49115 15.76367 23408 ft 424 kts 220°
2026-05-07 20:11 47.46792 15.73652 23815 ft 428 kts 215°
2026-05-07 20:12 47.44127 15.71671 24199 ft 432 kts 202°
2026-05-07 20:12 47.41309 15.70146 24651 ft 433 kts 201°
2026-05-07 20:12 47.38470 15.68630 25046 ft 435 kts 201°
2026-05-07 20:12 47.35622 15.67098 25408 ft 437 kts 202°
2026-05-07 20:13 47.32762 15.65539 25764 ft 439 kts 202°
2026-05-07 20:13 47.29899 15.63961 26146 ft 440 kts 202°
2026-05-07 20:13 47.27030 15.62370 26503 ft 442 kts 203°
2026-05-07 20:13 47.24141 15.60763 26809 ft 445 kts 203°
2026-05-07 20:14 47.21243 15.59151 27192 ft 446 kts 203°
2026-05-07 20:14 47.18352 15.57546 27683 ft 444 kts 203°
2026-05-07 20:14 47.15473 15.55950 28232 ft 441 kts 204°
2026-05-07 20:14 47.12609 15.54365 28817 ft 437 kts 204°
2026-05-07 20:15 47.09770 15.52796 29376 ft 434 kts 204°
2026-05-07 20:15 47.06949 15.51238 29911 ft 432 kts 205°
2026-05-07 20:15 47.04134 15.49683 30052 ft 434 kts 205°
2026-05-07 20:16 46.98491 15.46573 30063 ft 432 kts 205°
2026-05-07 20:16 46.93025 15.43094 30084 ft 425 kts 212°
2026-05-07 20:17 46.87815 15.38956 30074 ft 427 kts 213°
2026-05-07 20:17 46.82598 15.34841 30056 ft 425 kts 213°
2026-05-07 20:18 46.77385 15.30774 30053 ft 424 kts 213°
2026-05-07 20:18 46.72210 15.26751 30048 ft 425 kts 213°
2026-05-07 20:19 46.67047 15.22585 30029 ft 421 kts 219°
2026-05-07 20:19 46.62707 15.17001 30029 ft 414 kts 233°
2026-05-07 20:20 46.59278 15.10270 30028 ft 411 kts 237°
2026-05-07 20:20 46.55953 15.03568 30022 ft 412 kts 237°
2026-05-07 20:21 46.52587 14.96841 30012 ft 412 kts 237°
2026-05-07 20:21 46.49204 14.90126 30014 ft 412 kts 237°
2026-05-07 20:22 46.45811 14.83417 30014 ft 412 kts 237°
2026-05-07 20:22 46.42567 14.77023 30018 ft 411 kts 237°
2026-05-07 20:23 46.39294 14.70581 30038 ft 411 kts 237°
2026-05-07 20:23 46.35906 14.63926 30049 ft 411 kts 237°
2026-05-07 20:24 46.32502 14.57260 30029 ft 411 kts 237°
2026-05-07 20:24 46.29106 14.50626 30052 ft 410 kts 237°
2026-05-07 20:25 46.25712 14.44009 30041 ft 409 kts 237°
2026-05-07 20:25 46.22324 14.37420 30042 ft 408 kts 237°
2026-05-07 20:26 46.18943 14.30859 30047 ft 407 kts 237°
2026-05-07 20:26 46.15591 14.24372 30051 ft 406 kts 237°
2026-05-07 20:27 46.12215 14.17851 30038 ft 405 kts 237°
2026-05-07 20:27 46.08842 14.11347 30036 ft 406 kts 237°
2026-05-07 20:28 46.05454 14.04837 30040 ft 406 kts 237°
2026-05-07 20:28 46.02055 13.98312 30050 ft 408 kts 237°
2026-05-07 20:29 45.98707 13.91905 30038 ft 409 kts 237°
2026-05-07 20:29 45.96055 13.86158 30046 ft 406 kts 243°
2026-05-07 20:30 45.93249 13.79112 30045 ft 407 kts 243°
2026-05-07 20:30 45.90419 13.72065 30040 ft 407 kts 243°
2026-05-07 20:31 45.87574 13.65039 30041 ft 407 kts 243°
2026-05-07 20:31 45.84560 13.58155 30045 ft 410 kts 236°
2026-05-07 20:32 45.80662 13.52126 30050 ft 412 kts 231°
2026-05-07 20:32 45.76732 13.46238 30042 ft 411 kts 231°
2026-05-07 20:32 45.74727 13.43218 29434 ft 416 kts 231°
2026-05-07 20:33 45.72772 13.40270 28803 ft 411 kts 230°
2026-05-07 20:33 45.70823 13.37331 28254 ft 405 kts 230°
2026-05-07 20:33 45.68901 13.34433 27707 ft 399 kts 230°
2026-05-07 20:33 45.66998 13.31564 27149 ft 395 kts 230°
2026-05-07 20:34 45.65115 13.28727 26578 ft 392 kts 230°
2026-05-07 20:34 45.63250 13.25919 26035 ft 388 kts 230°
2026-05-07 20:34 45.61395 13.23129 25496 ft 385 kts 230°
2026-05-07 20:34 45.59551 13.20359 24962 ft 384 kts 230°
2026-05-07 20:35 45.57718 13.17608 24430 ft 382 kts 230°
2026-05-07 20:35 45.55887 13.14862 23910 ft 384 kts 230°
2026-05-07 20:35 45.54044 13.12101 23313 ft 384 kts 229°
2026-05-07 20:35 45.52207 13.09353 22703 ft 381 kts 229°
2026-05-07 20:36 45.50382 13.06624 22172 ft 378 kts 229°
2026-05-07 20:36 45.48574 13.03927 21618 ft 375 kts 229°
2026-05-07 20:36 45.46767 13.01258 21101 ft 373 kts 226°
2026-05-07 20:36 45.44770 12.98900 20568 ft 374 kts 217°
2026-05-07 20:37 45.42615 12.96846 20068 ft 373 kts 216°
2026-05-07 20:37 45.40450 12.94815 19550 ft 373 kts 216°
2026-05-07 20:37 45.38293 12.92770 19043 ft 372 kts 216°
2026-05-07 20:37 45.36152 12.90721 18529 ft 370 kts 216°
2026-05-07 20:38 45.34018 12.88671 17962 ft 370 kts 216°
2026-05-07 20:38 45.32036 12.86381 17400 ft 366 kts 226°
2026-05-07 20:38 45.30369 12.83685 16875 ft 362 kts 235°
2026-05-07 20:38 45.29040 12.80673 16379 ft 358 kts 240°
2026-05-07 20:39 45.27841 12.77767 15886 ft 356 kts 239°
2026-05-07 20:39 45.26450 12.74867 15406 ft 354 kts 235°
2026-05-07 20:39 45.24992 12.72061 14905 ft 353 kts 234°
2026-05-07 20:39 45.23525 12.69276 14410 ft 351 kts 234°
2026-05-07 20:40 45.22074 12.66500 13914 ft 350 kts 234°
2026-05-07 20:40 45.20637 12.63725 13378 ft 348 kts 234°
2026-05-07 20:40 45.19213 12.60955 12836 ft 346 kts 235°
2026-05-07 20:40 45.17804 12.58207 12435 ft 342 kts 235°
2026-05-07 20:41 45.16435 12.55539 12301 ft 329 kts 235°
2026-05-07 20:41 45.15112 12.52962 12159 ft 318 kts 236°
2026-05-07 20:41 45.14186 12.50204 12007 ft 306 kts 257°
2026-05-07 20:41 45.14010 12.47248 11785 ft 301 kts 274°
2026-05-07 20:42 45.14488 12.44371 11541 ft 302 kts 288°
2026-05-07 20:42 45.15223 12.41568 11280 ft 306 kts 290°
2026-05-07 20:42 45.15999 12.38738 11009 ft 309 kts 290°
2026-05-07 20:42 45.16769 12.35904 10719 ft 307 kts 290°
2026-05-07 20:43 45.17510 12.33120 10506 ft 295 kts 290°
2026-05-07 20:43 45.18200 12.30496 10393 ft 280 kts 290°
2026-05-07 20:43 45.18874 12.27924 9996 ft 278 kts 290°
2026-05-07 20:43 45.19337 12.25297 9673 ft 276 kts 270°
2026-05-07 20:44 45.19215 12.22590 9418 ft 276 kts 265°
2026-05-07 20:44 45.19055 12.19852 9094 ft 280 kts 265°
2026-05-07 20:44 45.18901 12.17114 8872 ft 275 kts 265°
2026-05-07 20:44 45.18756 12.14456 8740 ft 267 kts 265°
2026-05-07 20:45 45.18591 12.11871 8611 ft 259 kts 259°
2026-05-07 20:45 45.17884 12.09569 8403 ft 256 kts 234°
2026-05-07 20:45 45.16648 12.07778 8164 ft 254 kts 223°
2026-05-07 20:45 45.15325 12.06128 7903 ft 253 kts 222°
2026-05-07 20:46 45.14142 12.04312 7616 ft 251 kts 243°
2026-05-07 20:46 45.13742 12.01962 7375 ft 247 kts 273°
2026-05-07 20:46 45.14178 11.99672 7253 ft 239 kts 297°
2026-05-07 20:46 45.15131 11.97780 7141 ft 233 kts 309°
2026-05-07 20:47 45.16234 11.96150 7022 ft 227 kts 324°
2026-05-07 20:47 45.17689 11.95353 6924 ft 228 kts 353°
2026-05-07 20:47 45.19266 11.95678 6692 ft 233 kts 24°
2026-05-07 20:47 45.20605 11.96954 6486 ft 232 kts 39°
2026-05-07 20:48 45.21807 11.98480 6234 ft 233 kts 41°
2026-05-07 20:48 45.23003 12.00029 5985 ft 232 kts 39°
2026-05-07 20:48 45.24255 12.01463 5744 ft 231 kts 37°
2026-05-07 20:48 45.25489 12.02910 5507 ft 230 kts 39°
2026-05-07 20:49 45.26677 12.04386 5272 ft 229 kts 40°
2026-05-07 20:49 45.27871 12.05913 5040 ft 228 kts 41°
2026-05-07 20:49 45.29029 12.07408 4813 ft 227 kts 41°
2026-05-07 20:49 45.30195 12.08918 4578 ft 227 kts 41°
2026-05-07 20:50 45.31357 12.10424 4331 ft 226 kts 41°
2026-05-07 20:50 45.32514 12.11923 4106 ft 225 kts 41°
2026-05-07 20:50 45.33665 12.13414 3869 ft 222 kts 41°
2026-05-07 20:50 45.34787 12.14866 3775 ft 210 kts 42°
2026-05-07 20:51 45.35846 12.16237 3560 ft 205 kts 42°
2026-05-07 20:51 45.36893 12.17591 3326 ft 201 kts 42°
2026-05-07 20:51 45.37918 12.18917 3072 ft 198 kts 42°
2026-05-07 20:51 45.38933 12.20229 2802 ft 197 kts 43°
2026-05-07 20:52 45.39941 12.21532 2551 ft 196 kts 43°
2026-05-07 20:52 45.40607 12.22395 2368 ft 194 kts 43°
2026-05-07 20:52 45.41928 12.24102 2025 ft 187 kts 44°
2026-05-07 20:52 45.42553 12.24909 1847 ft 179 kts 44°
2026-05-07 20:53 45.43437 12.26051 1636 ft 165 kts 44°
2026-05-07 20:53 45.44250 12.27102 1408 ft 155 kts 45°
2026-05-07 20:53 45.45045 12.28117 1233 ft 153 kts 43°
2026-05-07 20:53 45.45829 12.29134 1019 ft 153 kts 46°
2026-05-07 20:54 45.46600 12.30171 804 ft 152 kts 44°
2026-05-07 20:54 45.47386 12.31167 601 ft 150 kts 43°
2026-05-07 20:54 45.48147 12.32159 398 ft 147 kts 43°
2026-05-07 20:54 45.48905 12.33118 189 ft 144 kts 43°
2026-05-07 20:55 45.49644 12.34071 15 ft 141 kts 43°
2026-05-07 20:55 45.50298 12.34913 14 ft 108 kts 41°
2026-05-07 20:55 45.50742 12.35483 14 ft 64 kts 42°
2026-05-07 20:55 45.50977 12.35772 13 ft 36 kts 33°
2026-05-07 20:56 45.51148 12.35871 13 ft 24 kts 13°
2026-05-07 20:56 45.51266 12.35873 13 ft 15 kts 312°
2026-05-07 20:56 45.51229 12.35758 14 ft 14 kts 221°
2026-05-07 20:56 45.51160 12.35669 15 ft 13 kts 222°
2026-05-07 20:57 45.51091 12.35580 15 ft 14 kts 223°
2026-05-07 20:57 45.51010 12.35465 16 ft 19 kts 235°
2026-05-07 20:57 45.50966 12.35264 16 ft 23 kts 258°
2026-05-07 20:57 45.50869 12.35090 15 ft 23 kts 222°
2026-05-07 20:58 45.50754 12.34943 15 ft 22 kts 221°
2026-05-07 20:58 45.50650 12.34811 15 ft 17 kts 225°
2026-05-07 20:58 45.50667 12.34688 15 ft 14 kts 314°
2026-05-07 20:58 45.50732 12.34586 16 ft 14 kts 312°
2026-05-07 20:59 45.50794 12.34489 15 ft 13 kts 311°
2026-05-07 20:59 45.50854 12.34394 15 ft 11 kts 312°
2026-05-07 20:59 45.50875 12.34356 15 ft 4 kts 294°
2026-05-07 20:59 45.50876 12.34336 15 ft 0 kts 265°
2026-05-07 21:00 45.50865 12.34315 15 ft 6 kts 228°
2026-05-07 21:00 45.50843 12.34286 15 ft 2 kts 223°
2026-05-07 21:00 45.50836 12.34276 15 ft 0 kts 223°